EDT,Max TemperatureF,Mean TemperatureF,Min TemperatureF,Max Dew PointF,MeanDew PointF,Min DewpointF,Max Humidity, Mean Humidity, Min Humidity, Max Sea Level PressureIn, Mean Sea Level PressureIn, Min Sea Level PressureIn, Max VisibilityMiles, Mean VisibilityMiles, Min VisibilityMiles, Max Wind SpeedMPH, Mean Wind SpeedMPH, Max Gust SpeedMPH,PrecipitationIn, CloudCover, Events, WindDirDegrees
2013-4-1,84,75,66,70,67,63,93,78,56,30.07,30.03,29.99,10,10,2,15,6,21,0.10,3,Rain,171
2013-4-2,87,72,59,68,63,57,100,88,44,30.10,30.05,30.01,10,4,0,12,2,,0.01,1,Fog,67
2013-4-3,84,75,66,69,67,65,97,75,58,30.08,30.03,30.00,10,10,9,15,5,21,0.01,1,,128
2013-4-4,87,78,69,71,68,64,87,76,61,30.05,30.00,29.94,10,10,10,25,9,30,0.00,3,Thunderstorm,141
2013-4-5,75,68,64,72,66,62,100,91,78,29.99,29.94,29.84,10,8,1,20,6,50,1.87,6,Rain-Thunderstorm,304
2013-4-6,82,71,60,63,59,54,93,74,40,30.10,30.01,29.95,10,10,10,16,10,21,0.00,3,,12
2013-4-7,82,71,61,65,62,59,93,73,52,30.13,30.08,30.02,10,10,10,17,5,24,0.00,1,,99
2013-4-8,82,73,64,62,61,59,87,68,47,30.13,30.09,30.05,10,10,10,13,7,17,0.00,1,,102
2013-4-9,82,72,63,67,64,60,97,73,58,30.15,30.10,30.06,10,10,10,18,7,,0.00,2,,98
2013-4-10,84,78,71,72,70,65,90,77,62,30.10,30.05,30.00,10,10,10,16,10,23,0.00,4,,111
2013-4-11,84,78,75,73,71,70,89,77,66,30.01,29.96,29.91,10,10,6,17,13,28,0.02,6,Rain,132
2013-4-12,89,84,78,75,73,70,90,76,55,29.98,29.94,29.89,10,10,10,14,10,21,0.00,5,,164
2013-4-13,87,80,75,75,72,69,94,80,57,29.98,29.94,29.91,10,10,4,12,6,16,0.22,3,Rain,183
2013-4-14,88,80,73,75,73,71,97,77,61,29.98,29.95,29.90,10,10,10,16,6,23,0.00,2,,143
2013-4-15,88,80,73,75,73,68,94,84,65,30.07,30.00,29.94,10,8,1,21,6,23,1.57,6,Rain,105
2013-4-16,87,80,72,75,72,69,97,77,63,30.11,30.07,30.03,10,10,10,17,6,22,0.00,2,,91
2013-4-17,86,78,72,73,70,68,97,76,61,30.10,30.06,30.02,10,10,10,18,8,28,0.00,3,,76
2013-4-18,87,80,73,72,70,67,82,71,53,30.06,30.02,29.99,10,10,10,16,9,22,0.00,3,,123
2013-4-19,87,82,78,73,72,70,82,73,61,30.05,30.02,29.98,10,10,8,16,11,23,0.02,3,Rain,143
2013-4-20,91,81,73,75,71,66,91,77,46,30.09,30.02,29.96,10,10,10,14,6,20,0.00,3,,194
2013-4-21,86,78,71,72,71,67,100,85,56,30.09,30.06,30.01,10,9,2,16,5,23,0.00,4,,24
2013-4-22,82,76,71,72,70,66,94,86,62,30.06,30.01,29.93,10,10,7,17,6,26,0.04,5,Rain-Thunderstorm,61
2013-4-23,86,75,66,69,65,60,96,70,49,30.09,30.02,29.97,10,10,10,21,9,25,0.00,2,,39
2013-4-24,84,75,66,65,62,59,79,64,51,30.14,30.09,30.05,10,10,10,15,8,22,0.00,1,,86
2013-4-25,84,74,64,63,60,58,84,60,44,30.19,30.14,30.09,10,10,10,14,8,23,0.00,0,,85
2013-4-26,84,73,62,64,62,58,90,65,49,30.22,30.18,30.13,10,10,10,16,7,23,0.00,0,,68
2013-4-27,84,74,66,66,62,60,79,63,49,30.19,30.14,30.08,10,10,10,18,9,24,0.00,1,,74
2013-4-28,84,78,73,66,64,59,76,63,49,30.10,30.05,30.00,10,10,10,20,13,28,0.00,2,,95
2013-4-29,82,76,71,72,68,65,91,76,65,30.04,30.00,29.95,10,9,2,17,10,24,0.26,5,Rain-Thunderstorm,119
2013-4-30,84,78,71,73,71,69,96,83,66,30.00,29.97,29.94,10,10,6,13,4,20,0.09,3,Rain,125